| time (UTC) | temp F | wind direction | speed MPH | gust MPH | rain 1hr in | rain 24hr in | rain mn in | humidity % | barometer mb |
| 20260507003503 | 58 | 117 | 2.0 | 4.0 | 0.00 | 0.00 | 0.00 | 72 | 1019.6 |
| 20260507003003 | 58 | 113 | 2.0 | 4.0 | 0.00 | 0.00 | 0.00 | 71 | 1019.6 |
| 20260507002717 | 58 | 113 | 2.0 | 4.0 | 0.00 | 0.00 | 0.00 | 71 | 1019.6 |
| 20260507002003 | 58 | 108 | 2.0 | 5.0 | 0.00 | 0.00 | 0.00 | 72 | 1019.6 |
| 20260507001503 | 58 | 178 | 3.0 | 10.0 | 0.00 | 0.00 | 0.00 | 72 | 1019.6 |
| 20260507001003 | 57 | 222 | 4.0 | 10.0 | 0.00 | 0.00 | 0.00 | 72 | 1019.6 |
| 20260507000503 | 58 | 212 | 3.0 | 9.0 | 0.00 | 0.00 | 0.00 | 71 | 1019.6 |
| 20260507000003 | 58 | 128 | 2.0 | 6.0 | 0.00 | 0.00 | 0.00 | 70 | 1019.6 |
| 20260506235503 | 57 | 143 | 2.0 | 7.0 | 0.00 | 0.00 | 0.00 | 73 | 1019.6 |
| 20260506235004 | 57 | 187 | 3.0 | 7.0 | 0.00 | 0.00 | 0.00 | 73 | 1019.6 |
| 20260506234503 | 57 | 192 | 3.0 | 7.0 | 0.00 | 0.00 | 0.00 | 73 | 1019.2 |
| 20260506234003 | 57 | 214 | 4.0 | 10.0 | 0.00 | 0.00 | 0.00 | 72 | 1019.6 |
| 20260506233503 | 57 | 212 | 4.0 | 10.0 | 0.00 | 0.00 | 0.00 | 72 | 1019.6 |
| 20260506233003 | 58 | 160 | 3.0 | 7.0 | 0.00 | 0.00 | 0.00 | 70 | 1019.6 |
| 20260506232717 | 58 | 161 | 2.0 | 5.0 | 0.00 | 0.00 | 0.00 | 69 | 1019.6 |
| 20260506232003 | 58 | 104 | 2.0 | 5.0 | 0.00 | 0.00 | 0.00 | 69 | 1019.6 |
| 20260506231717 | 58 | 108 | 2.0 | 5.0 | 0.00 | 0.00 | 0.00 | 69 | 1019.6 |
| 20260506231003 | 58 | 109 | 3.0 | 8.0 | 0.00 | 0.00 | 0.00 | 69 | 1019.6 |
| 20260506230503 | 58 | 121 | 3.0 | 8.0 | 0.00 | 0.00 | 0.00 | 70 | 1019.6 |
| 20260506230003 | 58 | 196 | 2.0 | 7.0 | 0.00 | 0.00 | 0.00 | 70 | 1019.6 |
| 20260506225503 | 58 | 146 | 3.0 | 7.0 | 0.00 | 0.00 | 0.00 | 69 | 1019.6 |
| 20260506225003 | 58 | 116 | 2.0 | 4.0 | 0.00 | 0.00 | 0.00 | 70 | 1019.6 |
| 20260506224503 | 58 | 132 | 2.0 | 4.0 | 0.00 | 0.00 | 0.00 | 71 | 1019.6 |
| 20260506224003 | 58 | 168 | 2.0 | 10.0 | 0.00 | 0.00 | 0.00 | 71 | 1019.6 |
| 20260506223503 | 58 | 130 | 3.0 | 10.0 | 0.00 | 0.00 | 0.00 | 71 | 1019.6 |
| 20260506223003 | 58 | 106 | 3.0 | 6.0 | 0.00 | 0.00 | 0.00 | 72 | 1019.6 |
| 20260506222716 | 57 | 110 | 3.0 | 6.0 | 0.00 | 0.00 | 0.00 | 72 | 1019.6 |
| 20260506222003 | 57 | 108 | 2.0 | 6.0 | 0.00 | 0.00 | 0.00 | 72 | 1019.9 |
| 20260506221503 | 57 | 160 | 2.0 | 7.0 | 0.00 | 0.00 | 0.00 | 73 | 1019.9 |
| 20260506221218 | 57 | 215 | 2.0 | 7.0 | 0.00 | 0.00 | 0.00 | 73 | 1019.9 |
| 20260506220503 | 57 | 184 | 3.0 | 7.0 | 0.00 | 0.00 | 0.00 | 73 | 1019.9 |
| 20260506220003 | 57 | 202 | 2.0 | 6.0 | 0.00 | 0.00 | 0.00 | 73 | 1019.9 |
| 20260506215503 | 57 | 137 | 3.0 | 6.0 | 0.00 | 0.00 | 0.00 | 72 | 1019.6 |
| 20260506215003 | 58 | 111 | 2.0 | 6.0 | 0.00 | 0.00 | 0.00 | 73 | 1019.9 |
| 20260506214503 | 58 | 110 | 2.0 | 5.0 | 0.00 | 0.00 | 0.00 | 72 | 1019.9 |
| 20260506214003 | 58 | 122 | 2.0 | 8.0 | 0.00 | 0.00 | 0.00 | 73 | 1019.9 |
| 20260506213503 | 57 | 160 | 2.0 | 8.0 | 0.00 | 0.00 | 0.00 | 74 | 1019.9 |
| 20260506213003 | 57 | 156 | 2.0 | 6.0 | 0.00 | 0.00 | 0.00 | 74 | 1019.9 |
| 20260506212718 | 57 | 135 | 2.0 | 6.0 | 0.00 | 0.00 | 0.00 | 74 | 1019.9 |
| 20260506212003 | 57 | 212 | 2.0 | 8.0 | 0.00 | 0.00 | 0.00 | 76 | 1019.9 |
| 20260506211503 | 56 | 234 | 3.0 | 9.0 | 0.00 | 0.00 | 0.00 | 76 | 1019.9 |
| 20260506211003 | 57 | 204 | 3.0 | 9.0 | 0.00 | 0.00 | 0.00 | 76 | 1019.6 |
| 20260506210503 | 57 | 141 | 2.0 | 6.0 | 0.00 | 0.00 | 0.00 | 77 | 1020.3 |
| 20260506210003 | 57 | 123 | 2.0 | 6.0 | 0.00 | 0.00 | 0.00 | 77 | 1019.9 |
| 20260506205503 | 57 | 99 | 2.0 | 4.0 | 0.00 | 0.00 | 0.00 | 78 | 1019.9 |
| 20260506205003 | 56 | 138 | 2.0 | 6.0 | 0.00 | 0.00 | 0.00 | 77 | 1019.9 |
| 20260506204503 | 56 | 138 | 2.0 | 6.0 | 0.00 | 0.00 | 0.00 | 78 | 1019.9 |
| 20260506204003 | 57 | 108 | 2.0 | 4.0 | 0.00 | 0.00 | 0.00 | 78 | 1019.6 |
| 20260506203503 | 57 | 110 | 2.0 | 5.0 | 0.00 | 0.00 | 0.00 | 77 | 1019.9 |
| 20260506203003 | 56 | 121 | 2.0 | 9.0 | 0.00 | 0.00 | 0.00 | 79 | 1019.9 |
| 20260506202503 | 56 | 107 | 2.0 | 9.0 | 0.00 | 0.00 | 0.00 | 77 | 1019.9 |
| 20260506202217 | 57 | 103 | 2.0 | 9.0 | 0.00 | 0.00 | 0.00 | 77 | 1019.9 |
| 20260506201718 | 57 | 100 | 2.0 | 4.0 | 0.00 | 0.00 | 0.00 | 77 | 1019.6 |
| 20260506201003 | 56 | 124 | 2.0 | 6.0 | 0.00 | 0.00 | 0.00 | 78 | 1019.6 |
| 20260506200503 | 56 | 147 | 3.0 | 8.0 | 0.00 | 0.00 | 0.00 | 79 | 1019.9 |
| 20260506200217 | 56 | 126 | 2.0 | 8.0 | 0.00 | 0.00 | 0.00 | 79 | 1019.9 |
| 20260506195503 | 56 | 122 | 2.0 | 6.0 | 0.00 | 0.00 | 0.00 | 79 | 1019.9 |
| 20260506195003 | 56 | 123 | 2.0 | 5.0 | 0.00 | 0.00 | 0.00 | 80 | 1019.6 |
| 20260506194503 | 56 | 184 | 3.0 | 5.0 | 0.00 | 0.00 | 0.00 | 80 | 1019.6 |
| 20260506194217 | 56 | 198 | 3.0 | 5.0 | 0.00 | 0.00 | 0.00 | 81 | 1019.9 |
| 20260506193503 | 56 | 119 | 3.0 | 6.0 | 0.00 | 0.00 | 0.00 | 81 | 1019.6 |
| 20260506193003 | 56 | 151 | 2.0 | 9.0 | 0.00 | 0.00 | 0.00 | 82 | 1019.6 |
| 20260506192503 | 55 | 220 | 2.0 | 9.0 | 0.00 | 0.00 | 0.00 | 85 | 1019.9 |
| 20260506192003 | 56 | 232 | 3.0 | 9.0 | 0.00 | 0.00 | 0.00 | 84 | 1019.6 |
| 20260506191503 | 56 | 232 | 4.0 | 9.0 | 0.00 | 0.00 | 0.00 | 83 | 1019.6 |
| 20260506191216 | 56 | 225 | 4.0 | 9.0 | 0.00 | 0.00 | 0.00 | 84 | 1019.6 |
| 20260506190503 | 56 | 244 | 3.0 | 6.0 | 0.00 | 0.00 | 0.00 | 83 | 1019.6 |
| 20260506190003 | 56 | 200 | 2.0 | 6.0 | 0.00 | 0.00 | 0.00 | 83 | 1019.6 |
| 20260506185503 | 55 | 204 | 2.0 | 6.0 | 0.00 | 0.00 | 0.00 | 84 | 1019.6 |
| 20260506185003 | 55 | 239 | 3.0 | 7.0 | 0.00 | 0.00 | 0.00 | 85 | 1019.6 |
| 20260506184717 | 55 | 226 | 3.0 | 7.0 | 0.00 | 0.00 | 0.00 | 86 | 1019.6 |
| 20260506184003 | 55 | 99 | 2.0 | 4.0 | 0.00 | 0.00 | 0.00 | 88 | 1019.6 |
| 20260506183503 | 54 | 98 | 2.0 | 5.0 | 0.00 | 0.00 | 0.00 | 89 | 1019.6 |
| 20260506183003 | 54 | 113 | 2.0 | 5.0 | 0.00 | 0.00 | 0.00 | 90 | 1019.6 |
| 20260506182503 | 54 | 124 | 2.0 | 4.0 | 0.00 | 0.00 | 0.00 | 90 | 1019.6 |
| 20260506182003 | 54 | 137 | 2.0 | 4.0 | 0.00 | 0.00 | 0.00 | 91 | 1019.6 |
| 20260506181717 | 54 | 152 | 2.0 | 4.0 | 0.00 | 0.00 | 0.00 | 91 | 1019.6 |
| 20260506181003 | 54 | 187 | 3.0 | 6.0 | 0.00 | 0.00 | 0.00 | 91 | 1019.6 |
| 20260506180503 | 54 | 204 | 3.0 | 6.0 | 0.00 | 0.00 | 0.00 | 91 | 1019.6 |
| 20260506180004 | 54 | 200 | 2.0 | 5.0 | 0.00 | 0.00 | 0.00 | 89 | 1019.2 |
| 20260506175503 | 54 | 142 | 3.0 | 6.0 | 0.00 | 0.00 | 0.00 | 89 | 1018.9 |
| 20260506175003 | 55 | 102 | 3.0 | 6.0 | 0.00 | 0.00 | 0.00 | 88 | 1019.2 |
| 20260506174503 | 55 | 116 | 3.0 | 4.0 | 0.00 | 0.00 | 0.00 | 87 | 1018.9 |
| 20260506174003 | 55 | 124 | 2.0 | 4.0 | 0.00 | 0.00 | 0.00 | 87 | 1019.2 |
| 20260506173717 | 55 | 124 | 2.0 | 4.0 | 0.00 | 0.00 | 0.00 | 87 | 1018.9 |
| 20260506173218 | 55 | 110 | 2.0 | 4.0 | 0.00 | 0.00 | 0.00 | 88 | 1019.2 |
| 20260506172503 | 55 | 73 | 2.0 | 6.0 | 0.00 | 0.00 | 0.00 | 88 | 1019.2 |
| 20260506172003 | 54 | 65 | 3.0 | 6.0 | 0.00 | 0.00 | 0.00 | 87 | 1019.2 |
| 20260506171717 | 55 | 86 | 3.0 | 6.0 | 0.00 | 0.00 | 0.00 | 87 | 1019.6 |
| 20260506171003 | 54 | 122 | 3.0 | 6.0 | 0.00 | 0.00 | 0.00 | 88 | 1019.2 |
| 20260506170503 | 54 | 158 | 2.0 | 6.0 | 0.00 | 0.00 | 0.00 | 89 | 1019.6 |
| 20260506170217 | 54 | 179 | 3.0 | 7.0 | 0.00 | 0.00 | 0.00 | 89 | 1019.2 |
| 20260506165503 | 54 | 167 | 3.0 | 8.0 | 0.00 | 0.00 | 0.00 | 90 | 1019.6 |
| 20260506165003 | 54 | 170 | 3.0 | 6.0 | 0.00 | 0.00 | 0.00 | 89 | 1019.2 |
| 20260506164503 | 54 | 233 | 3.0 | 6.0 | 0.00 | 0.00 | 0.00 | 90 | 1018.9 |
| 20260506164003 | 53 | 250 | 3.0 | 6.0 | 0.00 | 0.00 | 0.00 | 90 | 1018.9 |
| 20260506163503 | 54 | 244 | 3.0 | 6.0 | 0.00 | 0.00 | 0.00 | 90 | 1019.2 |
| 20260506163003 | 54 | 214 | 3.0 | 8.0 | 0.00 | 0.00 | 0.00 | 90 | 1019.2 |
| 20260506162503 | 54 | 200 | 3.0 | 8.0 | 0.00 | 0.00 | 0.00 | 90 | 1018.9 |
| 20260506162003 | 54 | 198 | 3.0 | 6.0 | 0.00 | 0.00 | 0.00 | 90 | 1018.9 |
| 20260506161503 | 54 | 185 | 2.0 | 6.0 | 0.00 | 0.00 | 0.00 | 89 | 1018.9 |
| 20260506161003 | 54 | 135 | 2.0 | 6.0 | 0.00 | 0.00 | 0.00 | 89 | 1018.9 |
| 20260506160718 | 54 | 125 | 2.0 | 6.0 | 0.00 | 0.00 | 0.00 | 89 | 1018.9 |
| 20260506160003 | 54 | 102 | 2.0 | 6.0 | 0.00 | 0.00 | 0.00 | 88 | 1018.5 |
| 20260506155503 | 54 | 80 | 2.0 | 5.0 | 0.00 | 0.00 | 0.00 | 88 | 1018.5 |
| 20260506155217 | 54 | 87 | 3.0 | 6.0 | 0.00 | 0.00 | 0.00 | 89 | 1018.5 |
| 20260506154503 | 54 | 137 | 3.0 | 6.0 | 0.00 | 0.00 | 0.00 | 89 | 1018.5 |
| 20260506154217 | 54 | 130 | 3.0 | 6.0 | 0.00 | 0.00 | 0.00 | 88 | 1018.5 |
| 20260506153503 | 54 | 95 | 2.0 | 6.0 | 0.00 | 0.00 | 0.00 | 89 | 1018.9 |
| 20260506153003 | 54 | 104 | 2.0 | 5.0 | 0.00 | 0.00 | 0.00 | 89 | 1018.9 |
| 20260506152503 | 54 | 163 | 2.0 | 5.0 | 0.00 | 0.00 | 0.00 | 89 | 1018.5 |
| 20260506152003 | 54 | 198 | 2.0 | 4.0 | 0.00 | 0.00 | 0.00 | 89 | 1018.9 |
| 20260506151503 | 54 | 193 | 2.0 | 5.0 | 0.00 | 0.00 | 0.00 | 89 | 1018.9 |
| 20260506151003 | 54 | 126 | 2.0 | 5.0 | 0.00 | 0.00 | 0.00 | 89 | 1018.9 |
| 20260506150503 | 54 | 97 | 2.0 | 5.0 | 0.00 | 0.00 | 0.00 | 89 | 1018.9 |
| 20260506150003 | 54 | 102 | 3.0 | 5.0 | 0.00 | 0.00 | 0.00 | 89 | 1018.5 |
| 20260506145503 | 54 | 101 | 3.0 | 6.0 | 0.00 | 0.00 | 0.00 | 89 | 1018.5 |
| 20260506145003 | 54 | 92 | 3.0 | 6.0 | 0.00 | 0.00 | 0.00 | 89 | 1018.5 |
| 20260506144503 | 54 | 85 | 3.0 | 5.0 | 0.00 | 0.00 | 0.00 | 89 | 1018.5 |
| 20260506144003 | 54 | 90 | 2.0 | 5.0 | 0.00 | 0.00 | 0.00 | 89 | 1018.5 |
| 20260506143503 | 54 | 85 | 2.0 | 5.0 | 0.00 | 0.00 | 0.00 | 89 | 1018.5 |
| 20260506143217 | 54 | 78 | 2.0 | 5.0 | 0.00 | 0.00 | 0.00 | 89 | 1018.5 |
| 20260506142503 | 54 | 96 | 3.0 | 5.0 | 0.00 | 0.00 | 0.00 | 90 | 1018.5 |
| 20260506142003 | 53 | 120 | 3.0 | 5.0 | 0.00 | 0.00 | 0.00 | 90 | 1018.5 |
| 20260506141503 | 53 | 118 | 3.0 | 6.0 | 0.00 | 0.00 | 0.00 | 90 | 1018.5 |
| 20260506141003 | 53 | 96 | 3.0 | 6.0 | 0.00 | 0.00 | 0.00 | 90 | 1018.5 |
| 20260506140503 | 54 | 87 | 2.0 | 6.0 | 0.00 | 0.00 | 0.00 | 89 | 1018.5 |
| 20260506140216 | 54 | 88 | 2.0 | 5.0 | 0.00 | 0.00 | 0.00 | 89 | 1018.5 |
| 20260506135503 | 54 | 92 | 3.0 | 6.0 | 0.00 | 0.00 | 0.00 | 89 | 1018.2 |
| 20260506135216 | 54 | 99 | 3.0 | 6.0 | 0.00 | 0.00 | 0.00 | 89 | 1018.5 |
| 20260506134503 | 54 | 118 | 3.0 | 5.0 | 0.00 | 0.00 | 0.00 | 89 | 1018.5 |
| 20260506134003 | 54 | 102 | 3.0 | 5.0 | 0.00 | 0.00 | 0.00 | 89 | 1018.2 |
| 20260506133503 | 54 | 113 | 2.0 | 4.0 | 0.00 | 0.00 | 0.00 | 89 | 1018.5 |
| 20260506133003 | 54 | 133 | 3.0 | 8.0 | 0.00 | 0.00 | 0.00 | 88 | 1018.5 |
| 20260506132503 | 54 | 135 | 3.0 | 8.0 | 0.00 | 0.00 | 0.00 | 88 | 1018.5 |
| 20260506132003 | 54 | 137 | 3.0 | 5.0 | 0.00 | 0.00 | 0.00 | 88 | 1018.2 |
| 20260506131503 | 54 | 55 | 2.0 | 5.0 | 0.00 | 0.00 | 0.00 | 88 | 1018.2 |
| 20260506131003 | 54 | 32 | 2.0 | 5.0 | 0.00 | 0.00 | 0.00 | 88 | 1018.2 |
| 20260506130717 | 54 | 25 | 2.0 | 5.0 | 0.00 | 0.00 | 0.00 | 88 | 1017.9 |
| 20260506130218 | 54 | 58 | 2.0 | 5.0 | 0.00 | 0.00 | 0.00 | 88 | 1017.9 |
| 20260506125503 | 54 | 69 | 2.0 | 5.0 | 0.00 | 0.00 | 0.00 | 88 | 1017.9 |
| 20260506125003 | 54 | 88 | 3.0 | 5.0 | 0.00 | 0.00 | 0.00 | 88 | 1017.9 |
| 20260506124503 | 54 | 121 | 3.0 | 6.0 | 0.00 | 0.00 | 0.00 | 87 | 1018.2 |
| 20260506124003 | 54 | 160 | 3.0 | 6.0 | 0.00 | 0.00 | 0.00 | 88 | 1017.9 |
| 20260506123503 | 54 | 183 | 2.0 | 5.0 | 0.00 | 0.00 | 0.00 | 87 | 1017.9 |
| 20260506123218 | 54 | 165 | 2.0 | 5.0 | 0.00 | 0.00 | 0.00 | 87 | 1017.9 |
| 20260506122717 | 54 | 136 | 2.0 | 6.0 | 0.00 | 0.00 | 0.00 | 87 | 1017.9 |
| 20260506122003 | 54 | 150 | 3.0 | 6.0 | 0.00 | 0.00 | 0.00 | 87 | 1017.5 |
| 20260506121503 | 54 | 126 | 2.0 | 4.0 | 0.00 | 0.00 | 0.00 | 87 | 1017.9 |
| 20260506121003 | 54 | 162 | 2.0 | 7.0 | 0.00 | 0.00 | 0.00 | 87 | 1017.9 |
| 20260506120503 | 54 | 196 | 2.0 | 7.0 | 0.00 | 0.00 | 0.00 | 87 | 1017.5 |
| 20260506120003 | 54 | 181 | 3.0 | 6.0 | 0.00 | 0.00 | 0.00 | 87 | 1017.9 |
| 20260506115503 | 54 | 199 | 3.0 | 7.0 | 0.00 | 0.00 | 0.00 | 87 | 1017.5 |
| 20260506115003 | 54 | 271 | 3.0 | 7.0 | 0.00 | 0.00 | 0.00 | 87 | 1017.5 |
| 20260506114503 | 54 | 331 | 2.0 | 7.0 | 0.00 | 0.00 | 0.00 | 87 | 1017.9 |
| 20260506114218 | 54 | 71 | 2.0 | 4.0 | 0.00 | 0.00 | 0.00 | 87 | 1017.9 |
| 20260506113503 | 54 | 214 | 2.0 | 6.0 | 0.00 | 0.00 | 0.00 | 87 | 1017.5 |
| 20260506113003 | 54 | 183 | 2.0 | 6.0 | 0.00 | 0.00 | 0.00 | 87 | 1017.9 |
| 20260506112503 | 54 | 103 | 2.0 | 4.0 | 0.00 | 0.00 | 0.00 | 88 | 1017.5 |
| 20260506112217 | 54 | 107 | 2.0 | 4.0 | 0.00 | 0.00 | 0.00 | 88 | 1017.5 |
| 20260506111503 | 54 | 101 | 2.0 | 3.0 | 0.00 | 0.00 | 0.00 | 88 | 1017.5 |
| 20260506111003 | 54 | 105 | 2.0 | 4.0 | 0.00 | 0.00 | 0.00 | 89 | 1017.2 |
| 20260506110503 | 54 | 113 | 2.0 | 4.0 | 0.00 | 0.00 | 0.00 | 89 | 1017.2 |
| 20260506110003 | 54 | 104 | 2.0 | 4.0 | 0.00 | 0.00 | 0.00 | 89 | 1017.2 |
| 20260506105716 | 54 | 102 | 2.0 | 4.0 | 0.00 | 0.00 | 0.00 | 90 | 1017.2 |
| 20260506105003 | 54 | 111 | 2.0 | 4.0 | 0.00 | 0.00 | 0.00 | 91 | 1016.8 |
| 20260506104503 | 54 | 109 | 2.0 | 3.0 | 0.00 | 0.00 | 0.00 | 91 | 1017.2 |
| 20260506104003 | 53 | 104 | 2.0 | 3.0 | 0.00 | 0.00 | 0.00 | 92 | 1017.2 |
| 20260506103503 | 53 | 97 | 2.0 | 4.0 | 0.00 | 0.00 | 0.00 | 94 | 1017.2 |
| 20260506103003 | 52 | 92 | 2.0 | 4.0 | 0.00 | 0.00 | 0.00 | 95 | 1016.8 |
| 20260506102503 | 52 | 94 | 2.0 | 3.0 | 0.00 | 0.00 | 0.00 | 95 | 1016.8 |
| 20260506102003 | 52 | 94 | 2.0 | 3.0 | 0.00 | 0.00 | 0.00 | 96 | 1017.2 |
| 20260506101503 | 52 | 90 | 2.0 | 3.0 | 0.00 | 0.00 | 0.00 | 96 | 1016.8 |
| 20260506101003 | 52 | 91 | 2.0 | 3.0 | 0.00 | 0.00 | 0.00 | 96 | 1016.8 |
| 20260506100503 | 51 | 88 | 2.0 | 3.0 | 0.00 | 0.00 | 0.00 | 96 | 1016.8 |
| 20260506100003 | 51 | 87 | 2.0 | 2.0 | 0.00 | 0.00 | 0.00 | 95 | 1016.8 |
| 20260506095503 | 51 | 87 | 2.0 | 2.0 | 0.00 | 0.00 | 0.00 | 95 | 1016.8 |
| 20260506095003 | 51 | 89 | 2.0 | 3.0 | 0.00 | 0.00 | 0.00 | 95 | 1016.8 |
| 20260506094503 | 51 | 90 | 2.0 | 3.0 | 0.00 | 0.00 | 0.00 | 95 | 1016.5 |
| 20260506094003 | 51 | 92 | 2.0 | 3.0 | 0.00 | 0.00 | 0.00 | 94 | 1016.5 |
| 20260506093718 | 52 | 94 | 2.0 | 3.0 | 0.00 | 0.00 | 0.00 | 94 | 1016.8 |
| 20260506093003 | 52 | 92 | 1.0 | 2.0 | 0.00 | 0.00 | 0.00 | 94 | 1016.8 |
| 20260506092503 | 52 | 94 | 1.0 | 2.0 | 0.00 | 0.00 | 0.00 | 94 | 1016.8 |
| 20260506092003 | 52 | 92 | 1.0 | 2.0 | 0.00 | 0.00 | 0.00 | 94 | 1016.5 |
| 20260506091503 | 52 | 89 | 1.0 | 2.0 | 0.00 | 0.00 | 0.00 | 94 | 1016.5 |
| 20260506091003 | 52 | 84 | 1.0 | 2.0 | 0.00 | 0.00 | 0.00 | 94 | 1016.5 |
| 20260506090503 | 52 | 82 | 1.0 | 2.0 | 0.00 | 0.00 | 0.00 | 94 | 1016.2 |
| 20260506090003 | 52 | 86 | 1.0 | 2.0 | 0.00 | 0.00 | 0.00 | 94 | 1016.5 |
| 20260506085503 | 52 | 89 | 1.0 | 2.0 | 0.00 | 0.00 | 0.00 | 94 | 1016.5 |
| 20260506085003 | 53 | 87 | 1.0 | 2.0 | 0.00 | 0.00 | 0.00 | 94 | 1016.5 |
| 20260506084503 | 53 | 88 | 1.0 | 2.0 | 0.00 | 0.00 | 0.00 | 93 | 1016.5 |
| 20260506084003 | 53 | 93 | 1.0 | 3.0 | 0.00 | 0.00 | 0.00 | 93 | 1016.2 |
| 20260506083718 | 53 | 94 | 1.0 | 3.0 | 0.00 | 0.00 | 0.00 | 93 | 1016.5 |
| 20260506083003 | 53 | 84 | 1.0 | 3.0 | 0.00 | 0.00 | 0.00 | 94 | 1016.5 |
| 20260506082503 | 53 | 85 | 1.0 | 2.0 | 0.00 | 0.00 | 0.00 | 93 | 1016.2 |
| 20260506082003 | 53 | 92 | 1.0 | 2.0 | 0.00 | 0.00 | 0.00 | 93 | 1016.2 |
| 20260506081503 | 53 | 90 | 1.0 | 2.0 | 0.00 | 0.00 | 0.00 | 93 | 1016.2 |
| 20260506081003 | 52 | 92 | 1.0 | 2.0 | 0.00 | 0.00 | 0.00 | 93 | 1016.2 |
| 20260506080503 | 52 | 94 | 2.0 | 2.0 | 0.00 | 0.00 | 0.00 | 92 | 1015.8 |
| 20260506073503 | 53 | 100 | 2.0 | 3.0 | 0.00 | 0.00 | 0.00 | 92 | 1015.8 |
| 20260506073003 | 53 | 98 | 2.0 | 3.0 | 0.00 | 0.00 | 0.00 | 92 | 1015.8 |
| 20260506072503 | 53 | 94 | 1.0 | 2.0 | 0.00 | 0.00 | 0.00 | 92 | 1015.8 |
| 20260506072003 | 53 | 94 | 1.0 | 2.0 | 0.00 | 0.00 | 0.00 | 92 | 1015.8 |
| 20260506071503 | 53 | 85 | 2.0 | 2.0 | 0.00 | 0.00 | 0.00 | 92 | 1015.8 |
| 20260506071003 | 53 | 83 | 2.0 | 3.0 | 0.00 | 0.00 | 0.00 | 92 | 1015.8 |
| 20260506070503 | 53 | 85 | 2.0 | 3.0 | 0.00 | 0.00 | 0.00 | 91 | 1015.8 |
| 20260506062003 | 54 | 87 | 1.0 | 2.0 | 0.00 | 0.00 | 0.00 | 88 | 1015.5 |
| 20260506061503 | 54 | 83 | 2.0 | 2.0 | 0.00 | 0.00 | 0.00 | 89 | 1015.5 |
| 20260506061003 | 54 | 83 | 2.0 | 2.0 | 0.00 | 0.00 | 0.00 | 89 | 1015.1 |
| 20260506060503 | 54 | 85 | 2.0 | 2.0 | 0.00 | 0.00 | 0.00 | 88 | 1015.1 |
| 20260506051003 | 56 | 88 | 1.0 | 2.0 | 0.00 | 0.00 | 0.00 | 85 | 1014.8 |
| 20260506050503 | 56 | 89 | 1.0 | 2.0 | 0.00 | 0.00 | 0.00 | 85 | 1014.8 |
| 20260506045003 | 56 | 90 | 2.0 | 3.0 | 0.00 | 0.00 | 0.00 | 84 | 1014.5 |
| 20260506044718 | 56 | 88 | 2.0 | 2.0 | 0.00 | 0.00 | 0.00 | 83 | 1014.8 |
| 20260506044003 | 57 | 89 | 2.0 | 2.0 | 0.00 | 0.00 | 0.00 | 82 | 1014.8 |
| 20260506043503 | 57 | 88 | 2.0 | 2.0 | 0.00 | 0.00 | 0.00 | 81 | 1014.8 |
| 20260506043217 | 57 | 85 | 2.0 | 2.0 | 0.00 | 0.00 | 0.00 | 81 | 1014.5 |
| 20260506042503 | 58 | 86 | 1.0 | 2.0 | 0.00 | 0.00 | 0.00 | 80 | 1014.5 |
| 20260506042003 | 58 | 88 | 1.0 | 2.0 | 0.00 | 0.00 | 0.00 | 80 | 1014.5 |
| 20260506041503 | 58 | 87 | 1.0 | 2.0 | 0.00 | 0.00 | 0.00 | 79 | 1014.5 |
| 20260506041003 | 58 | 92 | 2.0 | 2.0 | 0.00 | 0.00 | 0.00 | 78 | 1014.5 |
| 20260506040718 | 59 | 90 | 2.0 | 3.0 | 0.00 | 0.00 | 0.00 | 78 | 1014.5 |
| 20260506040003 | 59 | 89 | 1.0 | 3.0 | 0.00 | 0.00 | 0.00 | 77 | 1014.5 |
| 20260506035718 | 59 | 85 | 1.0 | 2.0 | 0.00 | 0.00 | 0.00 | 76 | 1014.5 |
| 20260506035003 | 60 | 81 | 1.0 | 2.0 | 0.00 | 0.00 | 0.00 | 76 | 1014.5 |
| 20260506034503 | 60 | 88 | 1.0 | 2.0 | 0.00 | 0.00 | 0.00 | 75 | 1014.1 |
| 20260506034003 | 60 | 91 | 1.0 | 2.0 | 0.00 | 0.00 | 0.00 | 74 | 1014.1 |
| 20260506033503 | 61 | 86 | 1.0 | 2.0 | 0.00 | 0.00 | 0.00 | 73 | 1014.1 |
| 20260506033216 | 61 | 85 | 1.0 | 2.0 | 0.00 | 0.00 | 0.00 | 73 | 1014.5 |
| 20260506032503 | 61 | 85 | 1.0 | 2.0 | 0.00 | 0.00 | 0.00 | 72 | 1014.1 |
| 20260506032003 | 62 | 85 | 1.0 | 2.0 | 0.00 | 0.00 | 0.00 | 71 | 1014.1 |
| 20260506031717 | 62 | 89 | 1.0 | 2.0 | 0.00 | 0.00 | 0.00 | 71 | 1014.1 |
| 20260506031003 | 62 | 105 | 1.0 | 2.0 | 0.00 | 0.00 | 0.00 | 69 | 1014.1 |
| 20260506030717 | 62 | 113 | 1.0 | 3.0 | 0.00 | 0.00 | 0.00 | 69 | 1014.1 |
| 20260506030003 | 62 | 153 | 1.0 | 3.0 | 0.00 | 0.00 | 0.00 | 69 | 1014.1 |
| 20260506025503 | 63 | 164 | 1.0 | 4.0 | 0.00 | 0.00 | 0.00 | 68 | 1014.1 |
| 20260506025003 | 63 | 203 | 2.0 | 4.0 | 0.00 | 0.00 | 0.00 | 67 | 1014.1 |
| 20260506024503 | 63 | 203 | 2.0 | 5.0 | 0.00 | 0.00 | 0.00 | 67 | 1014.1 |
| 20260506024218 | 63 | 200 | 2.0 | 5.0 | 0.00 | 0.00 | 0.00 | 67 | 1014.1 |
| 20260506023503 | 63 | 210 | 2.0 | 5.0 | 0.00 | 0.00 | 0.00 | 66 | 1013.8 |
| 20260506023003 | 64 | 205 | 2.0 | 4.0 | 0.00 | 0.00 | 0.00 | 65 | 1014.1 |
| 20260506022717 | 64 | 194 | 1.0 | 4.0 | 0.00 | 0.00 | 0.00 | 64 | 1014.1 |
| 20260506022218 | 65 | 171 | 1.0 | 4.0 | 0.00 | 0.00 | 0.00 | 64 | 1013.8 |
| 20260506021503 | 64 | 194 | 2.0 | 4.0 | 0.00 | 0.00 | 0.00 | 65 | 1013.8 |
| 20260506021003 | 64 | 209 | 2.0 | 5.0 | 0.00 | 0.00 | 0.00 | 65 | 1014.1 |
| 20260506020503 | 64 | 216 | 3.0 | 5.0 | 0.00 | 0.00 | 0.00 | 64 | 1014.1 |
| 20260506020003 | 65 | 202 | 2.0 | 5.0 | 0.00 | 0.00 | 0.00 | 64 | 1013.8 |
| 20260506015503 | 65 | 211 | 2.0 | 5.0 | 0.00 | 0.00 | 0.00 | 62 | 1014.1 |
| 20260506015003 | 65 | 227 | 2.0 | 5.0 | 0.00 | 0.00 | 0.00 | 63 | 1014.1 |
| 20260506014717 | 65 | 223 | 2.0 | 5.0 | 0.00 | 0.00 | 0.00 | 63 | 1013.8 |
| 20260506014003 | 65 | 202 | 2.0 | 5.0 | 0.00 | 0.00 | 0.00 | 63 | 1014.1 |
| 20260506013503 | 66 | 187 | 2.0 | 5.0 | 0.00 | 0.00 | 0.00 | 62 | 1014.1 |
| 20260506013003 | 66 | 195 | 2.0 | 4.0 | 0.00 | 0.00 | 0.00 | 62 | 1014.1 |
| 20260506012503 | 66 | 177 | 2.0 | 4.0 | 0.00 | 0.00 | 0.00 | 61 | 1014.1 |
| 20260506012003 | 66 | 184 | 2.0 | 5.0 | 0.00 | 0.00 | 0.00 | 62 | 1014.1 |
| 20260506011503 | 64 | 208 | 3.0 | 7.0 | 0.00 | 0.00 | 0.00 | 64 | 1013.8 |
| 20260506011003 | 64 | 211 | 3.0 | 7.0 | 0.00 | 0.00 | 0.00 | 63 | 1014.1 |
| 20260506010503 | 65 | 209 | 3.0 | 7.0 | 0.00 | 0.00 | 0.00 | 62 | 1013.8 |
| 20260506010003 | 66 | 196 | 3.0 | 7.0 | 0.00 | 0.00 | 0.00 | 61 | 1014.1 |
| 20260506005503 | 66 | 183 | 2.0 | 6.0 | 0.00 | 0.00 | 0.00 | 61 | 1014.1 |
| 20260506005003 | 67 | 162 | 2.0 | 6.0 | 0.00 | 0.00 | 0.00 | 59 | 1014.1 |
| 20260506004503 | 67 | 140 | 2.0 | 5.0 | 0.00 | 0.00 | 0.00 | 60 | 1014.1 |
| 20260506004003 | 66 | 242 | 2.0 | 6.0 | 0.00 | 0.00 | 0.00 | 61 | 1014.1 |